GEFSCGP_850_meantemp_072.txt.gz
Temperature
29 29 27 27 27 27 28 27 26 24 24 23 22 21 21 20 20 20 19 19 18 17 17 16 15 15 15 14 14 14 14 14 14 14 15 15 15 16 16 16 16 17 17 17
28 27 27 28 28 28 28 27 26 24 23 24 22 21 21 20 20 19 19 18 18 17 16 16 15 14 14 14 14 14 13 14 14 14 14 14 14 15 15 16 16 16 16 16
27 26 27 27 27 27 27 26 25 24 23 23 22 21 20 20 20 19 19 18 17 17 16 15 15 14 14 13 13 13 13 13 13 13 14 14 14 14 15 15 15 16 16 16
27 27 27 27 26 25 26 25 25 24 23 23 23 21 20 20 20 19 18 18 17 16 16 15 14 14 13 13 13 13 13 13 13 13 13 13 13 14 14 14 15 15 15 16
26 26 26 26 24 24 24 24 24 24 23 23 24 22 20 20 19 19 18 18 17 16 15 15 14 14 13 13 13 13 13 13 13 13 13 13 13 13 14 14 14 15 15 15
25 25 25 25 24 24 24 24 24 24 24 23 24 23 20 19 19 19 18 17 16 16 15 14 14 13 13 13 13 12 12 12 12 12 13 13 13 13 13 14 14 14 15 15
25 25 25 25 25 25 25 24 23 23 22 23 23 22 19 19 19 19 18 17 16 16 15 14 14 13 13 13 13 12 12 12 12 12 12 12 13 13 13 13 13 14 14 14
26 24 24 24 24 23 25 24 23 22 23 23 23 21 19 20 19 19 18 17 16 16 15 14 14 13 13 13 13 12 12 12 12 12 12 12 12 12 13 13 13 13 14 14
27 23 23 23 24 24 24 25 24 23 24 24 23 21 19 20 19 19 18 17 17 16 15 15 14 14 13 13 13 12 12 12 12 12 12 12 12 12 12 13 13 13 13 13
27 25 24 23 23 23 24 23 24 23 22 22 23 22 20 19 19 19 18 17 17 16 15 15 14 14 13 13 13 13 12 12 12 12 12 12 12 12 12 12 13 13 13 13
26 26 24 23 24 23 24 24 24 23 23 22 21 19 20 19 19 18 18 17 17 16 16 15 14 14 13 13 13 13 12 12 12 12 12 12 12 12 12 12 12 12 13 13
25 26 25 24 23 23 23 23 23 22 22 23 21 19 20 20 19 19 18 17 17 16 16 15 15 14 14 13 13 13 13 12 12 12 12 12 12 12 12 12 12 12 12 12
25 24 24 22 22 22 23 22 22 22 22 22 21 19 20 20 19 19 18 17 17 17 16 16 15 14 14 14 13 13 12 12 12 12 11 11 11 11 11 12 12 12 12 12
22 24 24 23 23 23 23 22 22 21 22 22 22 20 20 20 19 19 18 18 17 17 16 16 15 15 14 14 13 13 12 12 12 11 11 11 11 11 11 11 12 12 12 12
24 24 25 24 23 23 23 22 22 21 21 21 21 21 21 20 20 19 18 18 17 17 17 16 15 15 15 14 13 13 13 12 12 11 11 11 11 11 11 11 11 11 11 11
24 24 24 24 23 23 23 23 22 22 22 21 21 21 22 20 20 19 19 18 18 17 17 16 16 15 15 15 14 13 13 12 12 11 11 11 11 11 11 11 11 11 11 11
25 24 24 24 24 23 23 24 23 22 22 22 21 22 21 21 20 20 19 18 18 17 16 16 16 15 15 15 14 14 13 13 12 11 11 11 11 11 11 11 11 11 11 11
25 24 24 24 24 23 24 25 24 23 23 23 23 22 22 21 20 19 19 19 18 17 16 16 15 15 15 15 14 14 13 13 12 11 11 11 11 11 11 11 11 11 11 11
24 24 23 24 24 25 23 24 24 23 23 24 23 22 22 21 20 19 19 18 18 17 16 16 15 15 15 14 14 14 14 13 12 11 11 11 11 11 11 11 11 10 11 11
23 23 22 23 23 24 24 24 24 23 22 24 23 23 22 21 19 20 19 18 18 17 16 16 15 15 15 14 14 14 14 13 12 11 11 11 11 11 11 11 10 10 10 10
22 22 22 22 23 25 24 23 23 22 23 24 23 23 22 21 20 20 19 18 17 17 16 16 15 15 15 14 14 14 13 13 12 11 11 11 11 11 11 11 11 10 10 10
24 24 24 23 23 24 23 22 23 24 24 23 23 22 22 21 20 20 19 18 17 17 16 16 15 15 15 14 14 14 13 13 12 11 11 11 11 11 11 11 11 11 10 10
25 26 25 25 25 24 23 23 24 24 24 23 23 22 21 21 20 19 19 18 17 17 16 16 16 15 15 14 14 14 13 13 12 12 12 11 11 11 11 11 11 11 11 10
27 27 25 25 25 25 24 24 24 23 23 23 22 22 21 21 20 19 19 18 18 17 16 16 16 16 15 15 14 14 13 13 13 12 12 12 11 11 11 11 11 11 11 11
26 25 25 25 25 25 25 24 23 23 22 22 22 21 21 20 20 19 19 18 18 17 17 16 16 16 16 15 14 14 14 13 13 13 13 12 12 11 11 11 11 11 11 11
27 26 24 24 26 26 26 24 23 23 22 22 21 21 20 20 20 19 19 19 18 18 17 16 16 16 16 15 15 14 14 14 13 13 13 13 12 12 11 11 11 11 11 11

GEFSCGP_850_meantemp_078.txt.gz
Temperature
25 22 22 23 23 23 22 20 20 20 20 19 17 16 17 18 17 17 16 16 16 16 15 15 15 14 14 14 14 13 13 13 14 14 14 14 14 15 15 15 15 15 16 16
21 22 24 24 23 22 21 19 19 20 20 18 16 17 17 17 17 17 16 16 16 15 15 15 14 14 14 13 13 13 13 13 13 13 13 13 14 14 14 14 14 15 15 15
22 23 25 24 22 22 21 20 20 19 20 18 17 16 16 17 17 16 16 16 16 15 15 14 14 14 13 13 13 13 13 13 13 13 13 13 13 14 14 14 14 14 14 15
23 24 24 22 22 22 21 22 21 20 18 17 17 15 16 16 16 16 15 16 15 15 15 14 14 14 13 13 13 13 12 12 12 12 12 13 13 13 13 13 14 14 14 15
22 22 22 22 22 22 21 22 21 20 19 17 17 15 15 15 15 15 15 15 15 15 15 14 14 13 13 13 13 13 12 12 12 12 12 12 12 13 13 13 13 14 14 14
22 23 22 22 22 22 22 20 19 16 16 17 17 16 15 14 15 15 15 15 15 15 14 14 14 13 13 13 13 13 12 12 12 12 12 12 12 12 13 13 13 13 14 14
21 21 22 22 21 21 19 17 16 17 15 16 17 16 15 15 16 16 15 15 15 15 14 14 14 13 13 13 13 13 12 12 12 12 12 12 12 12 12 13 13 13 13 14
20 19 21 21 21 20 20 17 16 17 16 16 17 16 15 16 17 16 16 16 15 15 15 14 14 13 13 13 13 13 12 12 12 12 12 12 12 12 12 12 12 13 13 13
18 19 21 21 21 21 20 18 17 16 17 16 16 16 16 16 16 16 16 16 15 15 15 14 14 14 13 13 13 13 12 12 12 12 12 12 12 12 12 12 12 12 13 13
18 19 20 21 21 21 20 18 15 16 17 16 16 16 14 15 15 15 15 16 15 15 15 15 14 14 13 13 13 12 12 12 12 12 12 12 12 12 12 12 12 12 12 12
19 18 19 20 20 19 20 19 16 14 14 15 15 15 15 15 15 14 15 16 16 15 15 15 14 14 13 13 13 12 12 12 12 12 12 12 12 12 12 12 12 12 12 12
18 16 17 19 19 20 20 19 16 16 16 14 14 14 16 15 16 16 16 16 16 16 15 15 14 14 14 13 13 12 12 12 12 11 11 11 11 11 12 12 12 12 12 12
18 16 16 18 18 19 20 20 17 14 14 14 14 15 15 15 16 16 16 16 16 16 15 15 15 14 14 13 13 13 12 12 12 11 11 11 11 11 11 11 11 12 12 12
18 16 17 18 18 18 19 19 19 16 14 15 15 16 16 15 14 16 16 16 16 16 15 15 15 14 14 13 13 13 12 12 12 12 11 11 11 11 11 11 11 11 11 12
17 18 19 18 20 19 19 19 19 17 16 15 16 16 16 15 15 17 17 17 16 16 16 15 15 14 14 14 13 13 12 12 12 12 11 11 11 11 11 11 11 11 11 11
17 19 19 20 20 20 20 19 18 18 18 17 17 17 16 17 17 17 17 17 16 16 16 15 15 15 14 14 13 13 13 12 12 12 11 11 11 11 11 11 11 11 11 11
17 17 18 17 19 20 19 19 18 18 18 17 17 16 16 15 16 17 17 17 17 16 16 16 15 15 14 14 14 13 13 12 12 12 11 11 11 11 11 11 11 11 11 11
17 16 15 16 19 19 19 19 19 19 19 18 18 17 17 18 19 19 18 18 17 16 16 16 15 15 14 14 14 13 13 12 12 12 11 11 11 11 11 11 11 11 11 11
16 17 16 15 18 18 19 20 20 19 19 18 18 17 18 19 18 18 18 18 17 17 16 16 15 15 15 14 14 13 13 12 12 12 11 11 11 11 11 11 11 11 11 11
16 14 15 16 18 19 19 21 21 20 19 19 19 18 18 17 14 16 19 18 18 17 17 16 16 15 15 14 14 13 13 12 12 12 11 11 11 11 11 11 11 11 11 11
17 16 15 16 17 17 18 21 21 19 19 21 21 20 19 18 18 20 19 18 18 17 17 16 16 15 15 15 14 14 13 13 12 12 11 11 11 11 11 11 11 11 11 11
16 15 15 14 16 17 20 20 18 19 22 22 22 21 21 21 20 20 19 19 18 17 17 17 16 16 15 15 14 14 13 13 12 12 12 11 11 11 11 11 11 11 11 11
15 16 15 15 17 20 22 22 24 23 23 23 22 22 21 21 20 20 19 19 18 18 17 17 16 16 16 15 15 14 14 13 13 12 12 12 11 11 11 11 11 11 11 11
17 17 16 17 18 21 23 23 23 23 23 23 22 22 22 21 20 20 19 19 18 18 18 17 17 16 16 16 15 15 14 14 13 13 12 12 12 12 11 11 11 11 11 11
19 18 18 19 18 21 23 23 24 23 23 23 22 22 22 21 20 20 19 19 19 18 18 18 17 17 16 16 16 15 14 14 13 13 13 12 12 12 12 11 11 11 11 11
16 16 17 17 20 19 22 23 23 23 23 22 22 22 21 21 21 20 20 19 19 18 18 18 17 17 17 16 16 15 15 14 14 13 13 13 12 12 12 11 11 11 11 11

GEFSCGP_850_meantemp_084.txt.gz
Temperature
22 20 20 20 20 21 20 19 18 18 18 17 16 15 15 16 15 15 15 15 15 15 15 14 14 14 13 13 13 13 13 13 13 13 13 13 13 13 13 14 14 14 14 14
20 21 22 21 20 20 19 18 18 18 18 17 16 15 15 15 15 15 15 15 15 15 15 14 14 14 13 13 13 13 12 12 12 12 12 12 12 13 13 13 13 13 14 14
21 21 22 21 20 20 19 18 18 17 17 16 16 15 15 15 15 15 15 15 15 15 14 14 14 13 13 13 13 12 12 12 12 12 12 12 12 13 13 13 13 13 13 14
21 21 21 21 20 20 20 19 19 17 16 15 16 14 14 14 14 14 15 15 15 15 14 14 14 13 13 13 13 12 12 12 12 12 12 12 12 12 12 12 13 13 13 13
20 21 21 21 20 20 19 18 18 17 16 15 15 14 14 14 14 13 14 15 15 15 14 14 14 13 13 13 13 12 12 12 12 12 12 12 12 12 12 12 12 13 13 13
20 21 21 20 19 19 18 16 15 14 14 15 15 14 14 13 14 14 15 15 15 15 14 14 14 13 13 13 13 12 12 12 12 12 12 12 12 12 12 12 12 12 12 13
20 20 20 20 19 18 17 16 15 16 14 14 15 14 14 14 14 14 15 15 15 15 14 14 14 13 13 13 12 12 12 12 12 12 12 12 12 12 12 12 12 12 12 12
20 19 20 20 19 18 17 16 15 16 15 14 15 14 14 15 15 16 16 16 15 15 14 14 14 13 13 13 12 12 12 12 12 12 12 12 12 12 12 12 12 12 12 12
19 19 20 20 19 18 17 15 15 13 15 14 14 14 14 15 15 15 15 15 15 15 15 14 14 13 13 13 12 12 12 12 12 11 11 11 11 11 11 11 11 11 12 12
18 19 19 19 19 18 17 14 13 14 15 15 14 14 14 15 14 13 14 15 15 15 15 14 14 14 13 13 13 12 12 12 11 11 11 11 11 11 11 11 11 11 11 11
18 17 18 18 19 18 17 15 13 12 13 13 14 14 14 15 14 13 14 16 16 15 15 15 14 14 13 13 13 12 12 12 11 11 11 11 11 11 11 11 11 11 11 11
15 14 16 17 18 18 18 16 13 15 14 12 12 13 15 14 14 15 15 16 16 15 15 15 14 14 13 13 13 12 12 12 11 11 11 11 11 11 11 11 11 11 11 11
15 15 16 17 17 18 18 16 14 12 11 11 12 14 14 14 15 15 16 16 16 16 15 15 14 14 14 13 13 12 12 12 11 11 11 11 11 11 11 11 11 11 11 11
16 15 16 17 17 16 17 16 14 13 13 12 12 13 14 14 13 15 16 16 16 16 15 15 15 14 14 13 13 13 12 12 12 11 11 11 11 11 11 11 11 11 11 11
15 16 17 17 18 17 17 17 15 14 14 14 14 14 14 14 14 16 17 16 16 16 15 15 15 14 14 14 13 13 12 12 12 11 11 11 11 11 11 11 11 11 11 11
14 16 18 18 18 18 18 17 16 15 15 14 14 14 14 16 16 16 16 17 16 16 16 15 15 15 14 14 13 13 13 12 12 11 11 11 11 11 11 11 11 11 11 11
14 16 16 16 17 18 18 17 16 16 15 15 15 15 15 15 15 17 17 17 17 17 16 16 15 15 14 14 14 13 13 12 12 12 11 11 11 11 11 11 11 11 11 11
14 13 12 14 17 19 18 18 17 17 16 15 15 15 16 17 18 19 19 18 18 17 17 16 15 15 15 14 14 13 13 12 12 12 11 11 11 11 11 11 11 11 11 11
13 13 13 13 16 16 18 18 17 18 18 17 15 16 17 17 17 18 19 19 18 18 17 16 16 15 15 14 14 13 13 13 12 12 12 11 11 11 11 11 11 11 11 11
12 12 12 13 17 18 18 19 19 19 19 19 18 17 17 16 14 16 20 19 19 18 17 16 16 15 15 15 14 14 13 13 12 12 12 11 11 11 11 11 11 11 11 11
15 13 13 14 16 15 16 18 19 19 18 20 20 19 18 17 17 20 20 20 19 18 17 17 16 16 15 15 14 14 14 13 13 12 12 12 11 11 11 11 11 11 11 11
14 13 13 12 15 17 18 17 17 18 21 21 21 21 20 21 21 20 20 19 19 18 18 17 16 16 16 15 15 14 14 14 13 13 12 12 11 11 11 11 11 11 11 11
13 14 13 13 16 18 18 18 20 20 20 21 21 21 21 21 20 20 20 19 19 18 18 17 17 16 16 16 15 15 14 14 13 13 13 12 12 11 11 11 11 11 11 11
13 13 12 13 15 17 18 18 19 20 20 21 21 21 21 21 21 20 20 20 19 19 18 18 17 17 17 16 16 15 15 14 14 13 13 13 12 12 11 11 11 11 11 11
14 12 13 14 14 17 19 18 19 20 21 21 21 21 21 21 21 20 20 20 19 19 18 18 18 17 17 17 16 16 15 14 14 14 13 13 12 12 12 12 11 11 11 11
11 11 13 14 14 13 16 16 18 19 20 20 21 21 20 20 20 20 20 20 19 19 18 18 18 18 17 17 17 16 16 15 15 14 14 13 13 12 12 12 12 11 11 11

GEFSCGP_850_meantemp_090.txt.gz
Temperature
25 27 27 27 27 26 26 26 25 24 22 22 23 23 22 21 20 20 19 19 19 18 17 16 15 14 14 14 13 13 13 13 12 12 12 12 12 12 12 12 13 13 13 13
26 26 27 26 25 25 26 26 25 23 22 22 23 23 23 21 20 20 20 19 19 17 17 16 15 14 14 13 13 13 13 12 12 12 12 12 12 12 12 12 12 12 13 13
27 26 25 25 25 25 25 25 25 24 22 22 22 23 23 22 20 19 19 18 18 17 16 16 15 14 14 13 13 13 12 12 12 12 12 12 12 12 12 12 12 12 13 13
26 25 25 25 25 25 25 24 23 23 23 24 22 24 24 22 21 20 20 19 18 17 16 15 15 14 14 13 13 13 12 12 12 12 12 12 12 12 12 12 12 12 12 12
25 25 25 25 24 24 24 23 23 23 23 23 23 23 25 22 22 22 20 19 18 17 16 15 15 14 14 13 13 12 12 12 12 12 12 12 12 12 12 12 12 12 12 12
24 24 25 24 23 23 23 23 23 23 24 23 23 23 24 24 23 22 21 19 18 17 16 15 15 14 13 13 13 12 12 12 12 12 12 12 12 12 12 12 12 12 12 12
24 24 23 23 23 23 24 24 24 24 24 24 22 22 23 23 22 21 20 19 18 17 16 15 15 14 13 13 13 12 12 12 12 12 12 12 11 11 11 12 12 12 12 12
25 24 24 24 24 24 24 24 24 23 24 24 22 22 24 22 20 19 19 18 17 17 16 15 15 14 13 13 13 12 12 12 12 12 12 11 11 11 11 11 11 11 11 11
26 24 23 23 23 24 24 24 24 24 23 23 24 23 23 21 21 20 19 18 18 17 16 15 15 14 14 13 13 12 12 12 11 11 11 11 11 11 11 11 11 11 11 11
27 24 23 22 23 21 24 23 23 23 23 23 24 23 23 23 22 21 20 19 18 17 16 16 15 14 14 13 13 12 12 12 11 11 11 11 11 11 11 11 11 11 11 11
26 25 23 23 23 24 22 22 23 23 22 22 23 24 23 23 22 21 21 19 18 17 16 16 15 14 14 13 13 12 12 12 12 11 11 11 11 11 11 11 11 11 11 11
24 26 24 23 22 22 23 23 23 23 23 22 22 23 22 22 21 20 20 19 18 17 16 16 15 14 14 13 13 13 12 12 12 11 11 11 11 11 11 11 11 11 11 11
24 25 24 23 22 21 22 22 22 22 22 22 22 24 22 22 21 20 19 19 18 17 16 16 15 15 14 14 13 13 13 12 12 12 11 11 11 11 11 11 11 11 11 11
23 25 25 24 24 23 22 21 21 22 22 22 22 23 23 23 22 21 20 19 18 17 17 16 15 15 14 14 14 13 13 12 12 12 11 11 11 11 11 11 11 11 11 11
24 25 24 23 22 22 22 22 21 21 22 22 23 23 23 23 22 21 20 19 18 17 17 16 16 15 15 14 14 13 13 12 12 12 12 11 11 11 11 11 11 11 11 11
23 24 23 23 22 22 22 22 22 21 22 22 22 22 24 22 21 21 20 19 18 18 17 17 16 16 15 15 14 13 13 12 12 12 12 11 11 11 11 11 11 11 11 11
23 23 23 23 22 22 23 23 22 22 22 22 22 23 23 22 21 21 20 19 19 18 17 17 17 16 16 15 14 14 13 13 12 12 12 12 11 11 11 11 11 11 11 11
23 23 23 23 23 22 24 23 23 23 23 23 23 23 22 22 21 20 20 19 19 18 17 17 17 16 16 15 14 14 13 13 13 12 12 12 11 11 11 11 11 11 11 11
22 22 23 23 23 23 24 23 22 23 23 24 23 23 22 20 20 21 20 19 19 18 18 17 17 16 16 15 15 14 14 13 13 13 12 12 12 12 12 11 11 11 11 11
20 22 23 22 22 23 24 23 22 23 23 24 23 22 22 21 23 23 20 19 19 18 18 17 17 16 16 15 15 14 14 14 13 13 12 12 12 12 12 12 11 11 11 11
21 21 22 22 23 24 23 21 21 23 24 22 22 22 21 22 23 21 19 19 19 18 18 17 17 16 16 15 15 15 14 14 13 13 13 13 12 12 12 12 12 11 11 11
23 22 22 22 22 23 21 21 23 23 22 21 21 21 20 20 20 19 19 19 19 19 18 18 17 16 16 16 15 15 15 14 14 14 13 13 13 12 12 12 12 11 11 11
23 23 23 23 23 21 19 20 19 18 19 19 20 19 19 19 19 19 18 18 18 18 18 18 17 17 16 16 16 15 15 15 14 14 14 13 13 13 12 12 12 11 11 11
22 20 21 22 22 20 18 17 17 17 17 18 18 18 18 18 19 18 18 18 18 18 18 18 17 17 16 16 16 16 15 15 15 14 14 14 13 13 13 13 12 12 11 11
22 20 21 22 22 19 17 16 16 16 16 17 17 18 18 18 18 18 18 18 18 18 18 18 17 17 17 16 16 16 16 16 15 15 14 14 14 13 13 13 13 12 12 12
21 21 22 23 21 21 19 16 16 16 16 16 17 17 18 18 18 18 18 18 18 18 18 18 17 17 16 16 16 16 16 16 15 15 14 14 14 14 14 13 13 13 13 13

GEFSCGP_850_meantemp_096.txt.gz
Temperature
27 27 26 26 25 25 24 25 26 26 26 26 26 26 26 25 24 24 23 23 23 22 21 19 18 17 17 16 16 15 15 14 14 14 14 13 13 13 13 13 13 13 13 13
27 26 27 27 26 25 26 26 27 27 26 26 26 26 27 26 25 24 24 23 23 21 21 20 18 17 17 16 15 15 14 14 14 14 13 13 13 13 13 13 13 13 13 13
26 27 28 27 26 27 27 27 27 26 26 26 26 26 27 26 25 24 24 23 22 21 20 19 18 17 16 16 15 15 14 14 14 14 14 13 13 13 13 13 13 13 13 13
27 27 27 27 27 28 26 27 27 26 26 26 27 25 26 25 25 24 24 23 22 21 20 19 18 17 16 16 15 14 14 14 13 13 13 13 13 13 13 13 13 13 13 13
26 26 27 27 27 27 26 27 27 27 26 26 27 26 26 25 25 24 24 23 22 21 20 19 18 17 16 15 15 14 14 13 13 13 13 13 13 13 13 13 13 13 13 13
26 27 28 27 27 27 27 27 27 27 26 25 27 26 25 25 25 24 24 23 21 20 19 19 18 17 16 15 15 14 14 13 13 13 13 13 13 13 13 13 13 13 13 13
26 27 27 28 27 27 27 26 25 25 24 26 27 26 25 24 25 24 24 23 21 20 19 18 18 17 16 15 15 14 14 13 13 13 13 13 13 13 13 13 12 13 13 13
26 26 27 27 27 27 27 27 25 24 25 26 26 26 24 25 24 23 23 22 21 20 19 18 18 17 16 15 15 14 14 13 13 13 13 13 13 12 12 12 12 12 13 12
26 26 27 28 28 27 27 27 27 25 26 26 27 26 24 24 24 23 23 22 21 20 19 19 18 17 16 16 15 14 14 13 13 13 13 13 13 12 12 12 12 12 12 12
26 25 26 26 27 26 27 26 26 25 24 25 26 26 24 23 24 24 23 23 22 21 20 19 18 17 16 16 15 15 14 14 14 13 13 13 13 12 12 12 12 12 12 12
27 25 25 25 25 26 26 26 26 25 25 24 24 24 25 24 24 24 24 23 22 21 20 19 18 17 17 16 15 15 15 14 14 13 13 13 13 12 12 12 12 12 12 12
27 27 26 26 27 27 27 26 26 25 25 25 24 23 25 25 24 24 23 22 21 21 20 19 18 17 17 16 16 15 15 14 14 13 13 13 13 13 12 12 12 12 12 12
27 26 25 25 25 25 25 26 26 25 24 24 24 24 25 25 25 24 23 22 21 20 20 19 18 17 17 16 16 15 15 14 14 14 13 13 13 13 13 12 12 12 12 12
25 26 26 25 25 26 25 25 25 25 24 24 25 25 25 25 24 24 23 22 21 21 20 19 18 18 17 17 16 16 15 15 14 14 13 13 13 13 13 12 12 12 12 12
26 25 27 27 27 26 26 26 25 24 24 24 25 25 25 25 25 24 23 22 22 21 20 20 19 18 18 17 16 16 15 15 14 14 14 13 13 13 13 12 12 12 12 12
26 26 26 26 27 26 26 26 26 25 25 25 25 25 26 25 25 24 23 23 22 21 20 20 19 19 18 17 17 16 15 15 15 14 14 13 13 13 13 12 12 12 12 12
26 26 25 25 26 26 25 26 25 25 25 25 24 25 26 25 25 24 23 23 22 21 20 20 19 19 18 18 17 16 16 15 15 14 14 14 13 13 13 13 12 12 12 12
26 26 25 25 25 24 26 27 27 26 26 26 26 26 26 25 24 24 23 22 22 21 20 20 19 19 18 18 17 17 16 16 15 15 14 14 13 13 13 13 13 13 12 12
26 25 25 25 25 26 26 26 26 26 25 26 26 26 26 25 24 23 23 22 21 21 20 19 19 18 18 18 17 17 17 16 15 15 14 14 13 13 13 13 13 13 12 12
25 25 24 24 24 25 26 27 27 26 25 26 26 26 25 25 23 23 22 21 21 20 19 19 18 18 18 17 17 17 17 16 16 15 14 14 14 13 13 13 13 13 12 12
23 23 23 23 24 25 26 26 25 24 24 26 26 25 25 24 23 22 22 21 20 20 19 18 18 18 17 17 17 17 17 16 16 15 15 14 14 14 14 13 13 13 13 13
25 24 24 24 23 24 25 25 25 25 25 25 25 24 24 23 22 22 21 20 20 19 19 18 18 17 17 17 17 16 16 16 16 15 15 14 14 14 14 13 13 13 13 13
26 26 26 25 24 24 25 25 24 24 24 24 23 23 23 22 22 21 21 20 19 19 18 18 17 17 17 17 16 16 16 16 15 15 15 15 14 14 14 14 14 13 13 13
27 27 26 25 25 24 24 23 23 23 23 22 22 22 22 22 21 21 21 20 19 19 18 18 17 17 17 17 16 16 16 16 15 15 15 15 15 14 14 14 14 14 13 13
26 26 26 25 25 24 23 23 22 22 22 21 21 21 21 21 20 20 20 19 19 18 18 17 17 17 17 16 16 16 16 16 15 15 15 15 15 15 15 15 14 14 14 14
26 26 25 24 25 24 23 22 21 21 21 21 20 20 20 20 19 19 19 18 18 18 17 17 17 16 16 16 16 16 16 16 15 15 15 15 15 15 15 15 15 14 14 14

GEFSCGP_850_meantemp_102.txt.gz
Temperature
23 20 20 20 20 20 20 20 20 21 22 21 20 20 19 20 20 20 20 20 19 19 18 18 17 17 16 16 15 15 15 14 14 14 14 14 14 13 13 13 13 13 13 13
20 20 21 21 21 21 21 20 21 21 22 21 20 20 20 20 20 20 20 20 19 19 18 17 17 17 16 16 15 15 14 14 14 14 13 13 13 13 13 13 13 13 13 13
20 21 22 22 21 21 21 20 21 21 22 22 21 19 19 20 20 20 20 20 20 19 18 17 17 17 16 16 15 15 14 14 14 13 13 13 13 13 13 13 13 13 13 13
20 21 22 22 22 21 21 22 23 22 21 19 21 18 19 19 19 19 19 19 19 19 18 18 17 17 16 15 15 14 14 14 14 13 13 13 13 13 13 13 13 13 13 13
20 21 22 22 22 22 21 23 23 22 21 20 19 18 18 19 18 18 18 19 19 19 18 18 17 17 16 15 15 14 14 14 13 13 13 13 13 13 13 13 13 13 13 13
20 21 22 22 23 23 22 21 20 18 18 19 20 18 18 17 18 18 18 19 19 19 18 18 17 17 16 15 15 14 14 14 13 13 13 13 13 13 13 13 13 13 13 12
21 21 23 23 23 23 21 19 18 19 17 18 19 19 18 19 19 19 18 19 19 19 18 18 17 17 16 15 15 14 14 14 13 13 13 13 13 13 12 12 12 12 12 12
20 20 22 23 23 22 21 19 18 19 19 18 19 19 18 20 20 21 20 20 19 19 18 18 17 17 16 16 15 15 14 14 13 13 13 13 13 12 12 12 12 12 12 12
19 20 23 24 24 23 22 20 18 17 19 18 18 19 20 20 19 19 19 19 19 19 18 18 17 17 16 16 15 15 14 14 14 13 13 13 13 13 12 12 12 12 12 12
20 21 22 23 24 23 22 20 17 18 18 18 19 19 17 19 18 18 18 19 19 19 18 18 17 17 16 16 15 15 14 14 14 13 13 13 13 13 13 12 12 12 12 12
21 20 21 22 23 22 23 22 18 16 16 17 18 18 19 18 18 18 18 20 20 19 19 18 18 17 17 16 15 15 15 14 14 14 13 13 13 13 13 13 12 12 12 12
20 18 19 21 21 22 22 21 18 18 18 16 16 17 19 19 19 19 20 20 20 19 19 18 18 17 17 16 16 15 15 14 14 14 14 13 13 13 13 13 13 12 12 12
20 18 19 19 20 22 23 22 19 16 16 16 16 19 19 19 19 20 20 20 20 20 19 18 18 17 17 16 16 15 15 15 14 14 14 13 13 13 13 13 13 13 12 12
20 18 19 20 20 20 22 22 21 18 17 17 18 19 20 19 19 19 20 21 20 20 19 19 18 18 17 17 16 16 15 15 15 14 14 14 13 13 13 13 13 13 13 13
20 20 21 20 21 21 21 21 21 20 18 18 19 19 20 19 18 20 21 20 20 19 19 19 18 18 17 17 16 16 16 15 15 14 14 14 13 13 13 13 13 13 13 13
19 20 21 21 22 22 22 21 20 20 20 19 20 20 20 20 21 20 20 20 20 20 19 19 19 18 18 17 17 16 16 15 15 15 14 14 14 13 13 13 13 13 13 13
19 19 20 19 20 21 21 21 20 20 20 20 20 19 20 19 19 20 21 21 20 20 20 19 19 18 18 17 17 16 16 16 15 15 15 14 14 14 14 13 13 13 13 13
18 18 16 18 20 21 20 20 21 21 21 20 20 20 19 20 22 22 22 21 21 20 20 19 19 19 18 17 17 17 16 16 15 15 15 14 14 14 14 14 13 13 13 13
18 18 17 17 18 19 20 22 21 21 21 20 20 20 21 21 20 20 21 22 21 21 20 20 19 19 18 18 17 17 16 16 16 15 15 15 14 14 14 14 14 13 13 13
17 16 16 16 19 19 20 21 23 22 21 21 20 20 20 20 17 18 21 21 21 20 20 19 19 18 18 17 17 17 16 16 16 15 15 15 15 14 14 14 14 14 14 13
18 17 16 16 17 18 19 22 22 20 20 22 22 22 21 20 20 22 21 21 21 20 20 19 19 18 18 17 17 17 16 16 16 15 15 15 15 15 14 14 14 14 14 13
17 16 16 15 17 18 20 22 20 20 22 23 23 23 23 23 22 22 21 21 20 20 19 19 18 18 17 17 17 17 16 16 16 16 15 15 15 15 14 14 14 14 14 14
16 17 16 16 18 20 22 23 24 24 23 23 23 23 23 22 22 21 21 20 20 20 19 18 18 18 17 17 17 17 16 16 16 16 15 15 15 15 15 14 14 14 14 14
17 17 16 17 17 20 22 23 24 24 24 24 23 23 23 22 22 21 20 20 20 19 19 18 18 17 17 17 16 16 16 16 16 15 15 15 15 15 15 14 14 14 14 14
18 18 17 17 18 20 21 22 23 23 23 23 23 22 22 22 21 21 20 20 19 19 18 18 17 17 17 16 16 16 16 16 15 15 15 15 15 15 14 14 14 14 14 14
17 18 17 17 19 18 21 23 23 23 22 22 22 22 21 21 21 20 20 19 19 18 18 18 17 17 16 16 16 16 15 15 15 15 15 15 14 14 14 14 14 14 14 14

GEFSCGP_850_meantemp_108.txt.gz
Temperature
20 18 18 18 19 20 19 19 19 20 20 19 18 18 18 18 18 18 18 18 18 18 18 18 17 17 16 16 15 15 14 14 14 14 13 13 13 13 13 13 13 13 13 13
18 18 19 19 19 19 19 19 19 20 20 19 18 18 18 17 17 18 18 18 19 18 18 18 17 16 16 16 15 14 14 14 13 13 13 13 13 13 13 13 13 13 12 12
19 19 20 20 19 19 19 19 20 20 20 19 19 19 18 18 18 18 18 19 19 19 18 18 17 16 16 15 15 14 14 13 13 13 13 13 13 13 13 13 12 12 12 12
19 19 20 20 20 20 19 20 20 20 19 18 19 17 18 17 17 17 17 18 18 19 18 18 17 16 16 15 15 14 14 13 13 13 13 13 13 13 12 12 12 12 12 12
19 19 20 20 20 20 20 20 20 19 18 18 18 17 17 17 17 17 17 18 18 19 18 18 17 17 16 15 14 14 14 13 13 13 13 13 12 12 12 12 12 12 12 12
19 19 20 20 20 20 19 18 17 16 16 17 18 17 17 16 17 17 17 18 19 19 18 18 17 16 16 15 14 14 14 13 13 13 13 13 12 12 12 12 12 12 12 12
19 20 20 20 20 20 19 18 17 18 16 17 17 17 16 17 17 17 17 18 19 19 18 18 17 16 16 15 15 14 14 13 13 13 13 13 12 12 12 12 12 12 12 12
19 19 20 20 20 19 19 18 18 18 17 16 17 17 17 18 18 18 19 19 19 19 18 18 17 17 16 15 15 14 14 14 13 13 13 13 13 12 12 12 12 12 12 12
18 19 20 21 21 19 18 17 17 16 17 17 16 17 17 18 18 18 18 18 19 19 19 18 17 17 16 15 15 14 14 14 13 13 13 13 13 13 12 12 12 12 12 12
19 19 20 21 20 19 18 15 15 16 17 17 17 17 17 18 18 17 16 17 19 19 19 18 17 17 16 16 15 15 14 14 14 13 13 13 13 13 12 12 12 12 12 12
19 19 20 20 21 20 18 17 15 14 15 16 17 17 17 17 17 17 17 19 20 19 19 18 18 17 16 16 15 15 14 14 14 13 13 13 13 13 13 12 12 12 12 12
18 17 18 19 20 20 20 18 16 17 16 14 15 16 17 17 17 17 18 20 20 20 19 19 18 17 16 16 15 15 15 14 14 14 13 13 13 13 13 13 13 12 12 12
18 17 18 19 19 20 20 18 16 14 13 13 15 17 17 17 17 18 19 20 20 20 19 19 18 17 17 16 16 15 15 15 14 14 13 13 13 13 13 13 13 13 13 12
17 17 18 19 19 19 20 19 16 16 15 14 14 16 18 18 17 18 19 20 20 20 19 19 18 17 17 16 16 15 15 15 14 14 14 13 13 13 13 13 13 13 13 13
18 18 19 18 19 19 20 19 17 17 16 16 16 16 17 17 17 19 20 20 20 20 19 19 18 18 17 17 16 16 15 15 15 14 14 14 13 13 13 13 13 13 13 13
17 18 19 19 20 19 19 19 18 17 17 16 17 17 17 18 19 19 19 19 19 20 20 19 19 18 17 17 16 16 16 15 15 15 14 14 14 13 13 13 13 13 13 13
16 17 18 18 18 19 19 19 18 18 17 17 17 18 18 17 17 19 20 20 21 21 20 20 19 18 18 17 17 16 16 15 15 15 14 14 14 14 13 13 13 13 13 13
16 15 15 16 18 19 18 19 19 18 18 17 17 18 17 18 20 21 22 22 21 21 20 20 19 19 18 17 17 16 16 15 15 15 15 14 14 14 14 14 13 13 13 13
15 15 14 15 17 17 18 19 18 18 19 18 17 18 18 19 19 20 22 22 22 21 21 20 19 19 18 18 17 16 16 16 15 15 15 15 14 14 14 14 14 14 13 13
14 14 14 14 18 18 19 20 20 19 20 19 18 17 17 17 16 18 22 22 21 21 20 20 19 19 18 18 17 16 16 16 15 15 15 15 14 14 14 14 14 14 13 13
16 14 14 14 16 16 17 18 19 19 19 21 20 20 18 18 20 22 22 22 21 21 20 20 19 19 18 18 17 17 16 16 16 15 15 15 15 14 14 14 14 14 13 13
15 15 14 13 15 17 18 18 18 19 21 21 21 22 21 22 22 22 22 21 21 20 20 19 19 18 18 17 17 17 16 16 15 15 15 15 15 14 14 14 14 14 13 13
14 14 13 14 16 18 18 19 21 21 21 22 22 23 22 22 22 22 21 21 21 20 20 19 19 18 18 17 17 17 16 16 15 15 15 15 15 14 14 14 14 14 14 13
14 13 13 13 14 17 19 20 21 21 21 22 22 23 22 22 22 22 21 21 20 20 19 19 18 18 18 17 17 16 16 16 15 15 15 15 15 14 14 14 14 14 13 13
15 13 13 14 15 17 21 22 21 21 22 22 22 22 22 22 22 21 21 21 20 20 19 19 18 18 17 17 16 16 16 15 15 15 15 15 14 14 14 14 13 13 13 13
12 14 14 15 17 16 19 21 21 21 21 22 22 22 22 22 22 21 21 20 20 19 19 18 18 17 17 17 16 16 15 15 15 15 15 14 14 14 13 13 13 13 12 12

GEFSCGP_850_meantemp_114.txt.gz
Temperature
23 23 23 24 24 24 25 25 25 25 24 24 24 25 25 24 23 23 23 23 22 21 20 18 17 17 17 16 16 15 15 14 14 14 13 13 13 13 13 13 12 12 12 12
23 23 24 24 24 24 24 24 25 24 24 24 24 25 25 24 23 23 23 23 22 21 20 18 17 17 17 16 15 15 15 14 14 13 13 13 13 13 13 12 12 12 12 12
24 24 24 23 23 23 24 24 25 24 23 23 24 25 25 24 23 22 22 22 22 21 20 19 18 17 16 16 15 15 14 14 13 13 13 13 13 13 13 13 12 12 12 12
24 24 23 23 24 24 24 24 24 24 24 24 24 24 26 25 24 24 23 22 21 20 20 19 18 17 17 16 15 15 14 14 13 13 13 13 13 13 13 12 12 12 12 12
23 23 23 24 24 24 24 23 23 23 24 24 24 24 26 25 25 25 24 22 21 20 20 19 18 17 17 16 15 15 14 14 13 13 13 13 13 13 12 12 12 12 12 12
23 23 24 24 24 24 23 23 23 23 24 24 24 24 25 26 26 25 24 22 21 20 19 19 18 17 16 16 15 15 14 14 13 13 13 13 13 12 12 12 12 12 12 12
23 23 23 23 23 23 23 24 23 23 24 24 24 24 25 26 25 24 24 23 22 20 19 19 18 17 16 16 15 15 14 14 13 13 13 13 13 12 12 12 12 12 12 12
23 23 23 23 24 24 24 25 24 23 24 25 24 24 26 25 23 22 22 22 21 20 19 18 18 17 16 16 15 15 14 14 14 13 13 13 13 13 13 12 12 12 12 12
24 24 23 23 24 25 24 24 25 25 24 24 25 25 26 24 23 23 22 22 21 20 19 19 18 17 16 16 15 15 14 14 14 13 13 13 13 13 13 12 12 12 12 12
24 24 23 23 23 22 24 25 24 24 23 24 24 25 25 25 25 24 24 23 22 20 19 19 18 17 17 16 15 15 14 14 14 14 13 13 13 13 13 13 12 12 12 12
24 24 23 23 24 24 23 24 24 24 24 24 24 25 26 25 25 25 24 23 22 21 20 19 18 17 17 16 16 15 15 14 14 14 13 13 13 13 13 13 13 12 12 12
24 24 24 24 24 24 24 25 25 24 24 24 24 25 25 25 24 24 24 23 22 21 20 19 18 17 17 16 16 15 15 14 14 14 13 13 13 13 13 13 13 12 12 12
23 24 24 24 24 23 24 23 24 24 24 24 24 25 25 25 24 23 23 22 21 20 20 19 18 17 17 16 16 16 15 15 14 14 14 13 13 13 13 13 13 12 13 12
22 24 24 23 24 24 24 23 23 24 24 24 24 25 26 25 25 24 23 22 21 20 20 19 18 18 17 17 16 16 15 15 15 14 14 14 13 13 13 13 13 13 13 12
23 24 24 24 24 24 24 24 23 23 24 24 25 25 26 26 25 24 23 22 21 20 20 19 19 18 17 17 16 16 16 15 15 14 14 14 14 13 13 13 13 13 13 13
23 24 24 24 24 23 23 24 23 23 23 24 24 24 26 25 24 24 23 22 21 21 20 20 19 18 18 17 17 16 16 15 15 14 14 14 14 14 14 13 13 13 13 13
24 24 24 24 24 23 24 25 24 24 24 24 24 25 26 25 24 24 23 22 21 21 21 20 20 19 18 18 17 16 16 16 15 15 14 14 14 14 14 14 13 13 13 13
23 23 24 24 24 22 25 24 24 24 24 25 24 25 25 24 23 23 22 22 22 21 20 20 20 19 19 18 17 17 16 16 15 15 14 14 14 14 14 14 14 14 13 13
22 23 23 23 23 23 25 24 23 23 24 25 24 24 24 23 22 23 22 22 22 21 21 20 20 19 19 18 17 17 16 16 15 15 15 14 14 14 14 14 14 14 13 13
20 22 23 23 22 22 24 24 23 23 24 25 24 24 23 23 25 25 23 22 21 21 21 20 20 19 19 18 18 17 17 16 16 15 15 15 15 15 14 14 14 14 14 14
22 21 22 22 22 23 24 22 22 23 24 23 23 23 23 23 24 23 22 21 21 21 21 20 20 19 19 18 18 17 17 16 16 16 15 15 15 15 14 14 14 14 14 14
23 22 22 22 22 23 23 22 23 24 23 22 22 22 22 22 21 21 21 21 21 21 21 20 20 19 19 19 18 17 17 16 16 16 15 15 15 14 14 14 14 14 14 13
22 23 23 23 23 23 21 22 22 21 21 21 21 21 20 20 20 20 20 20 20 20 20 20 20 19 19 18 18 17 17 17 16 16 15 15 15 14 14 14 14 13 13 13
22 20 21 21 23 22 20 20 20 19 19 20 20 19 19 20 20 20 20 20 20 20 20 20 19 19 19 18 18 17 17 17 16 16 15 15 14 14 14 14 13 13 13 13
20 19 20 21 22 21 21 20 19 19 19 19 19 19 19 19 20 20 20 20 20 20 20 19 19 19 18 18 18 17 17 16 16 15 15 14 14 14 13 13 13 13 13 13
19 19 20 20 21 21 20 19 18 18 18 18 18 19 19 19 19 19 19 19 19 19 19 19 19 18 18 18 17 17 17 16 15 15 14 14 14 13 13 13 13 13 13 13